Salem, OR

3:54 AM PDT on July 26, 2016 (GMT -0700)
McNary

Weather History for KSLE - November, 2014

Change the Weather History Date:

Tuesday, November 11, 2014

  Actual Average Record
Temperature  
Mean Temperature 44 °F 46 °F  
Max Temperature 55 °F 54 °F 68 °F (1930)
Min Temperature 32 °F 39 °F 21 °F (1936)
Degree Days  
Heating Degree Days 21 18  
Month to date heating degree days 157 190  
Since 1 July heating degree days 366 722  
Cooling Degree Days 0 0  
Month to date cooling degree days 0 0  
Year to date cooling degree days 605 290  
Moisture  
Dew Point 23 °F    
Average Humidity 52    
Maximum Humidity 75    
Minimum Humidity 28    
Precipitation  
Precipitation 0.00 in 0.21 in 1.97 in (1985)
Month to date precipitation 0.89 2.07  
Year to date precipitation 30.71 28.38  
Sea Level Pressure  
Sea Level Pressure 30.05 in    
Wind  
Wind Speed 8 mph (North)    
Max Wind Speed 21 mph    
Max Gust Speed 25 mph    
Visibility 10 miles    
Events      
T = Trace of Precipitation, MM = Missing Value Source: NWS Daily Summary

Daily Weather History Graph

Daily Weather History Graph

Search for Another Location

Airport or City:

Trip Planner

Search our weather history database for the weather conditions in past years. The results will help you decide how hot, cold, wet, or windy it might be!

Date:

Astronomy

Nov. 11, 2014 Rise Set
Actual Time 7:04 AM PST 4:47 PM PST
Civil Twilight 6:32 AM PST 5:18 PM PST
Nautical Twilight 5:57 AM PST 5:54 PM PST
Astronomical Twilight 5:23 AM PST 6:28 PM PST
Moon 9:16 PM PST (11/11) 11:14 AM PST (11/11)
Length of Visible Light 10h 46m
Length of Day
9h 43m
Waning Gibbous, 76% of the Moon is Illuminated
Nov 11
Waning Gibbous
Nov 14
Last Quarter
Nov 22
New
Nov 29
First Quarter
Dec 6
Full

Hourly Weather History & Observations

Time (PST) Temp. Windchill Dew Point Humidity Pressure Visibility Wind Dir Wind Speed Gust Speed Precip Events Conditions
12:56 AM 41.0 °F 33.9 °F 28.9 °F 62% 30.01 in 10.0 mi NNW 12.7 mph - N/A   Clear
1:56 AM 41.0 °F 39.0 °F 28.0 °F 60% 30.00 in 10.0 mi NNW 3.5 mph - N/A   Clear
2:56 AM 39.0 °F 35.7 °F 28.0 °F 65% 30.00 in 10.0 mi NW 4.6 mph - N/A   Clear
3:56 AM 37.0 °F 33.3 °F 28.0 °F 70% 30.00 in 10.0 mi WNW 4.6 mph - N/A   Clear
4:56 AM 37.9 °F 33.5 °F 27.0 °F 65% 29.99 in 10.0 mi NW 5.8 mph - N/A   Clear
5:56 AM 36.0 °F 32.1 °F 27.0 °F 70% 29.99 in 10.0 mi West 4.6 mph - N/A   Clear
6:56 AM 35.1 °F 31.0 °F 26.1 °F 70% 29.99 in 10.0 mi North 4.6 mph - N/A   Clear
7:56 AM 36.0 °F - 28.0 °F 73% 30.01 in 10.0 mi Calm Calm - N/A   Clear
8:56 AM 45.0 °F - 30.0 °F 56% 30.02 in 10.0 mi Calm Calm - N/A   Clear
9:56 AM 51.1 °F - 28.0 °F 41% 30.03 in 10.0 mi NNE 9.2 mph - N/A   Clear
10:56 AM 54.0 °F - 27.0 °F 35% 30.04 in 10.0 mi NNE 12.7 mph - N/A   Clear
11:56 AM 55.0 °F - 25.0 °F 31% 30.03 in 10.0 mi NNE 17.3 mph - N/A   Clear
12:56 PM 54.0 °F - 25.0 °F 33% 30.03 in 10.0 mi NE 13.8 mph - N/A   Clear
1:56 PM 54.0 °F - 21.9 °F 29% 30.03 in 10.0 mi NNE 15.0 mph 25.3 mph N/A   Clear
2:56 PM 52.0 °F - 21.0 °F 30% 30.03 in 10.0 mi NE 15.0 mph - N/A   Clear
3:56 PM 50.0 °F - 19.0 °F 29% 30.04 in 10.0 mi NNE 11.5 mph - N/A   Clear
4:56 PM 44.1 °F 38.6 °F 19.9 °F 38% 30.05 in 10.0 mi NNE 10.4 mph - N/A   Clear
5:56 PM 41.0 °F 33.5 °F 18.0 °F 40% 30.07 in 10.0 mi NNE 13.8 mph - N/A   Clear
6:56 PM 39.0 °F 32.8 °F 17.1 °F 41% 30.10 in 10.0 mi North 9.2 mph - N/A   Clear
7:56 PM 37.0 °F 34.5 °F 15.1 °F 41% 30.11 in 10.0 mi NNW 3.5 mph - N/A   Clear
8:56 PM 37.0 °F 31.0 °F 12.9 °F 37% 30.12 in 10.0 mi NNE 8.1 mph - N/A   Clear
9:56 PM 35.1 °F 29.3 °F 14.0 °F 42% 30.13 in 10.0 mi North 6.9 mph - N/A   Clear
10:56 PM 34.0 °F 28.8 °F 14.0 °F 44% 30.13 in 10.0 mi NW 5.8 mph - N/A   Clear
11:56 PM 33.1 °F 28.7 °F 14.0 °F 46% 30.14 in 10.0 mi NW 4.6 mph - N/A   Scattered Clouds